World > North America > United States > Michigan

Hourly Clay Township, MI Regional Weather

Feedback E-mail the Weather

Quick WX

Clay Township, MI Weather Maps

°F °C°F °C
Clay Township Weather Map
UTC Time: 7/5/2022, 03:49
Your Time:

Clay Township, MI Regional Weather

Expires:202207050400;;700648
ASUS43 KDTX 050310
RWRMI 
MICHIGAN HOURLY REGIONAL WEATHER ROUNDUP
NATIONAL WEATHER SERVICE DETROIT/PONTIAC MI
1100 PM EDT MON JUL 04 2022

NOTE: "FAIR" INDICATES FEW OR NO CLOUDS BELOW 12,000 FEET WITH NO
SIGNIFICANT WEATHER AND/OR OBSTRUCTION TO VISIBILITY.


MIZ047>049-052>055-059>063-066>070-074>076-081>083-050400-
SOUTHEAST LOWER MICHIGAN
  
CITY           SKY/WX    TMP DP  RH WIND       PRES   REMARKS
ADRIAN         CLOUDY    81  57  43 S5        30.02R                  
ALMA           CLOUDY    75  63  66 SE3       29.95F                  
ANN ARBOR      MOCLDY    76  63  64 S6        29.99F                  
BAD AXE        CLOUDY    73  59  60 SE3       29.98F                  
CARO           CLOUDY    76  61  60 SE5       29.97F                  
DETROIT CITY   MOCLDY    81  61  50 S8        30.01S                  
DETROIT        CLOUDY    80  63  55 S8        30.01R                  
GROSSE ILE     HAZE      78  71  80 S9        30.01R VSB 1            
HILLSDALE      CLOUDY    76  58  54 CALM      30.01S                  
HOWELL         MOCLDY    78  58  50 SE6       29.98F                  

CITY           SKY/WX    TMP DP  RH WIND       PRES   REMARKS
JACKSON        MOCLDY    79  58  48 SE7       29.98F                  
LANSING        CLOUDY    80  61  52 S9        29.96F                  
LAPEER         CLOUDY    77  59  53 SE6       29.99F                  
MASON          CLOUDY    77  62  58 S8        29.96F                  
MONROE         MOCLDY    81  62  51 S13G22    30.00R                  
MT. CLEMENS    MOCLDY    76  67  75 SE9       29.98F                  
PONTIAC        CLOUDY    80  58  46 SE8       30.00F                  
PORT HOPE        N/A     73  31  21 SE5       29.97F                  
PORT HURON     CLOUDY    77  61  57 S6        30.02S                  
TRI CITIES     CLOUDY    80  60  50 SE8       29.95F                  
MIDLAND        CLOUDY    74  66  76 E8        29.93F                  
TROY           MOCLDY    82  53  36 SE6       30.02F                  
SAGINAW HB     CLOUDY    79  59  51 SE7       29.95F                  
$$

SKY/WX - Weather  TMP - Temperature  DP - Dew Point  RH - Humidity
WIND - Wind Direction/Speed PRES - Barometric Pressure VSB - Visibility
WCI - Wind Chill Index E13G22 Wind - East Wind 13 mph/Gusts of 22 mph

Trending Headlines

Clay Township Radar Loop



Clay Township Quick Facts


National Two Day Weather Forecast


E-mail the Clay Township Weather Forecast

Voice your opinion or tell us about page issues...